Time,TemperatureF,DewpointF,PressureIn,WindDirection,WindDirectionDegrees,WindSpeedMPH,WindSpeedGustMPH,Humidity,HourlyPrecipIn,Conditions,Clouds,dailyrainin,SoftwareType,DateUTC
2013-05-14 00:01:00,33.8,26.7,30.06,WSW,247,0.0,-999.0,75,-99.99,,,0.00,Acu-Link.com,2013-05-14 04:01:00,
2013-05-14 00:16:00,33.1,26.4,30.06,West,270,0.0,-999.0,76,-99.99,,,0.00,Acu-Link.com,2013-05-14 04:16:00,
2013-05-14 00:31:00,33.1,26.7,30.06,SW,225,0.0,-999.0,77,-99.99,,,0.00,Acu-Link.com,2013-05-14 04:31:00,
2013-05-14 00:46:00,32.4,26.3,30.06,SSE,157,0.0,-999.0,78,-99.99,,,0.00,Acu-Link.com,2013-05-14 04:46:00,
2013-05-14 01:02:00,32.4,26.3,30.06,SW,225,0.0,-999.0,78,-99.99,,,0.00,Acu-Link.com,2013-05-14 05:02:00,
2013-05-14 01:17:00,31.8,26.0,30.07,NNW,337,0.0,-999.0,79,-99.99,,,0.00,Acu-Link.com,2013-05-14 05:17:00,
2013-05-14 01:32:00,31.5,26.7,30.06,West,270,0.0,-999.0,82,-99.99,,,0.00,Acu-Link.com,2013-05-14 05:32:00,
2013-05-14 01:47:00,30.7,26.4,30.06,West,270,0.0,-999.0,84,-99.99,,,0.00,Acu-Link.com,2013-05-14 05:47:00,
2013-05-14 02:02:00,30.6,26.6,30.07,WSW,247,0.0,-999.0,85,-99.99,,,0.00,Acu-Link.com,2013-05-14 06:02:00,
2013-05-14 02:18:00,30.4,26.4,30.07,WSW,247,0.0,-999.0,85,-99.99,,,0.00,Acu-Link.com,2013-05-14 06:18:00,
2013-05-14 02:33:00,29.8,26.1,30.07,SW,225,0.0,-999.0,86,-99.99,,,0.00,Acu-Link.com,2013-05-14 06:33:00,
2013-05-14 02:48:00,29.8,26.1,30.07,West,270,0.0,-999.0,86,-99.99,,,0.00,Acu-Link.com,2013-05-14 06:48:00,
2013-05-14 03:03:00,29.1,26.0,30.07,West,270,0.0,-999.0,88,-99.99,,,0.00,Acu-Link.com,2013-05-14 07:03:00,
2013-05-14 03:18:00,29.3,26.2,30.08,West,270,0.0,-999.0,88,-99.99,,,0.00,Acu-Link.com,2013-05-14 07:18:00,
2013-05-14 03:34:00,29.1,26.0,30.07,SW,225,0.0,-999.0,88,-99.99,,,0.00,Acu-Link.com,2013-05-14 07:34:00,
2013-05-14 03:49:00,28.8,26.2,30.08,West,270,0.0,-999.0,90,-99.99,,,0.00,Acu-Link.com,2013-05-14 07:49:00,
2013-05-14 04:05:00,28.8,26.2,30.07,West,270,0.0,-999.0,90,-99.99,,,0.00,Acu-Link.com,2013-05-14 08:05:00,
2013-05-14 04:20:00,28.8,26.2,30.07,West,270,0.0,-999.0,90,-99.99,,,0.00,Acu-Link.com,2013-05-14 08:20:00,
2013-05-14 04:35:00,28.6,25.8,30.08,West,270,0.0,-999.0,89,-99.99,,,0.00,Acu-Link.com,2013-05-14 08:35:00,
2013-05-14 04:50:00,28.4,26.1,30.08,West,270,0.0,-999.0,91,-99.99,,,0.00,Acu-Link.com,2013-05-14 08:50:00,
2013-05-14 05:06:00,28.2,26.2,30.07,WSW,247,0.0,-999.0,92,-99.99,,,0.00,Acu-Link.com,2013-05-14 09:06:00,
2013-05-14 05:21:00,28.2,25.9,30.07,NW,315,0.0,-999.0,91,-99.99,,,0.00,Acu-Link.com,2013-05-14 09:21:00,
2013-05-14 05:36:00,27.9,25.9,30.08,West,270,0.0,-999.0,92,-99.99,,,0.00,Acu-Link.com,2013-05-14 09:36:00,
2013-05-14 05:51:00,27.7,25.9,30.09,West,270,0.0,-999.0,93,-99.99,,,0.00,Acu-Link.com,2013-05-14 09:51:00,
2013-05-14 06:06:00,27.5,25.7,30.08,West,270,0.0,-999.0,93,-99.99,,,0.00,Acu-Link.com,2013-05-14 10:06:00,
2013-05-14 06:21:00,27.9,26.1,30.09,West,270,0.0,-999.0,93,-99.99,,,0.00,Acu-Link.com,2013-05-14 10:21:00,
2013-05-14 06:37:00,28.6,26.6,30.09,West,270,0.0,-999.0,92,-99.99,,,0.00,Acu-Link.com,2013-05-14 10:37:00,
2013-05-14 06:52:00,29.1,27.1,30.09,South,180,0.0,-999.0,92,-99.99,,,0.00,Acu-Link.com,2013-05-14 10:52:00,
2013-05-14 07:07:00,29.5,27.5,30.10,NE,45,0.0,-999.0,92,-99.99,,,0.00,Acu-Link.com,2013-05-14 11:07:00,
2013-05-14 07:22:00,31.1,29.1,30.10,NNE,22,0.0,-999.0,92,-99.99,,,0.00,Acu-Link.com,2013-05-14 11:22:00,
2013-05-14 07:37:00,31.8,30.0,30.11,ESE,112,1.1,-999.0,93,-99.99,,,0.00,Acu-Link.com,2013-05-14 11:37:00,
2013-05-14 07:53:00,33.4,29.7,30.10,NE,45,1.7,-999.0,86,-99.99,,,0.00,Acu-Link.com,2013-05-14 11:53:00,
2013-05-14 08:08:00,35.1,29.3,30.11,East,90,1.7,-999.0,79,-99.99,,,0.00,Acu-Link.com,2013-05-14 12:08:00,
2013-05-14 08:23:00,36.9,29.4,30.10,SSW,202,2.2,-999.0,74,-99.99,,,0.00,Acu-Link.com,2013-05-14 12:23:00,
2013-05-14 08:40:00,39.0,30.8,30.10,SE,135,1.7,-999.0,72,-99.99,,,0.00,Acu-Link.com,2013-05-14 12:40:00,
2013-05-14 08:55:00,41.9,31.4,30.09,ESE,112,1.7,-999.0,66,-99.99,,,0.00,Acu-Link.com,2013-05-14 12:55:00,
2013-05-14 09:10:00,45.5,31.6,30.09,WSW,247,1.7,-999.0,58,-99.99,,,0.00,Acu-Link.com,2013-05-14 13:10:00,
2013-05-14 09:25:00,49.3,32.9,30.07,WSW,247,2.2,-999.0,53,-99.99,,,0.00,Acu-Link.com,2013-05-14 13:25:00,
2013-05-14 09:41:00,48.4,32.5,30.07,SW,225,2.7,-999.0,54,-99.99,,,0.00,Acu-Link.com,2013-05-14 13:41:00,
2013-05-14 09:56:00,47.3,32.4,30.06,NNE,22,1.7,-999.0,56,-99.99,,,0.00,Acu-Link.com,2013-05-14 13:56:00,
2013-05-14 10:11:00,48.4,29.6,30.05,West,270,2.2,-999.0,48,-99.99,,,0.00,Acu-Link.com,2013-05-14 14:11:00,
2013-05-14 10:42:00,49.5,29.6,30.05,NW,315,2.7,-999.0,46,-99.99,,,0.00,Acu-Link.com,2013-05-14 14:42:00,
2013-05-14 10:57:00,51.3,29.0,30.03,SSE,157,1.7,-999.0,42,-99.99,,,0.00,Acu-Link.com,2013-05-14 14:57:00,
2013-05-14 11:12:00,52.5,26.3,30.03,SE,135,4.7,-999.0,36,-99.99,,,0.00,Acu-Link.com,2013-05-14 15:12:00,
2013-05-14 11:28:00,54.9,28.5,30.03,West,270,4.7,-999.0,36,-99.99,,,0.00,Acu-Link.com,2013-05-14 15:28:00,
2013-05-14 11:43:00,53.6,28.0,30.03,North,0,3.7,-999.0,37,-99.99,,,0.00,Acu-Link.com,2013-05-14 15:43:00,
2013-05-14 11:58:00,55.4,30.2,30.02,WNW,292,2.2,-999.0,38,-99.99,,,0.00,Acu-Link.com,2013-05-14 15:58:00,
2013-05-14 12:13:00,55.8,29.9,30.02,ESE,112,2.2,-999.0,37,-99.99,,,0.00,Acu-Link.com,2013-05-14 16:13:00,
2013-05-14 12:28:00,56.8,29.4,30.01,West,270,2.2,-999.0,35,-99.99,,,0.00,Acu-Link.com,2013-05-14 16:28:00,
2013-05-14 12:44:00,56.5,28.5,30.01,SW,225,1.7,-999.0,34,-99.99,,,0.00,Acu-Link.com,2013-05-14 16:44:00,
2013-05-14 12:59:00,58.6,28.1,30.00,WNW,292,2.2,-999.0,31,-99.99,,,0.00,Acu-Link.com,2013-05-14 16:59:00,
2013-05-14 13:14:00,59.2,27.0,30.00,West,270,1.7,-999.0,29,-99.99,,,0.00,Acu-Link.com,2013-05-14 17:14:00,
2013-05-14 13:30:00,56.7,26.4,29.99,ESE,112,3.7,-999.0,31,-99.99,,,0.00,Acu-Link.com,2013-05-14 17:30:00,
2013-05-14 13:45:00,58.8,25.8,29.98,West,270,4.2,-999.0,28,-99.99,,,0.00,Acu-Link.com,2013-05-14 17:45:00,
2013-05-14 14:00:00,58.6,22.9,29.98,SSW,202,2.7,-999.0,25,-99.99,,,0.00,Acu-Link.com,2013-05-14 18:00:00,
2013-05-14 14:16:00,63.5,22.9,29.98,SSE,157,1.1,-999.0,21,-99.99,,,0.00,Acu-Link.com,2013-05-14 18:16:00,
2013-05-14 14:32:00,60.1,24.2,29.97,SSE,157,0.0,-999.0,25,-99.99,,,0.00,Acu-Link.com,2013-05-14 18:32:00,
2013-05-14 14:48:00,60.3,21.3,29.97,SW,225,2.2,-999.0,22,-99.99,,,0.00,Acu-Link.com,2013-05-14 18:48:00,
2013-05-14 15:03:00,61.0,24.9,29.96,SE,135,1.7,-999.0,25,-99.99,,,0.00,Acu-Link.com,2013-05-14 19:03:00,
2013-05-14 15:20:00,62.8,24.5,29.96,SE,135,2.7,-999.0,23,-99.99,,,0.00,Acu-Link.com,2013-05-14 19:20:00,
2013-05-14 15:35:00,63.7,26.2,29.95,SE,135,1.7,-999.0,24,-99.99,,,0.00,Acu-Link.com,2013-05-14 19:35:00,
2013-05-14 15:50:00,61.5,24.4,29.94,SE,135,1.7,-999.0,24,-99.99,,,0.00,Acu-Link.com,2013-05-14 19:50:00,
2013-05-14 16:06:00,62.2,26.9,29.93,WNW,292,1.1,-999.0,26,-99.99,,,0.00,Acu-Link.com,2013-05-14 20:06:00,
2013-05-14 16:21:00,61.5,26.3,29.92,West,270,2.7,-999.0,26,-99.99,,,0.00,Acu-Link.com,2013-05-14 20:21:00,
2013-05-14 16:51:00,61.2,27.0,29.91,SW,225,1.1,-999.0,27,-99.99,,,0.00,Acu-Link.com,2013-05-14 20:51:00,
2013-05-14 17:07:00,60.8,26.6,29.91,West,270,1.7,-999.0,27,-99.99,,,0.00,Acu-Link.com,2013-05-14 21:07:00,
2013-05-14 17:22:00,59.7,28.2,29.92,NNE,22,2.7,-999.0,30,-99.99,,,0.00,Acu-Link.com,2013-05-14 21:22:00,
2013-05-14 17:41:00,60.1,28.6,29.92,West,270,5.3,-999.0,30,-99.99,,,0.00,Acu-Link.com,2013-05-14 21:41:00,
2013-05-14 17:56:00,59.5,29.6,29.92,WSW,247,3.2,-999.0,32,-99.99,,,0.00,Acu-Link.com,2013-05-14 21:56:00,
2013-05-14 18:16:00,58.8,29.8,29.92,West,270,2.7,-999.0,33,-99.99,,,0.00,Acu-Link.com,2013-05-14 22:16:00,
2013-05-14 18:36:00,57.0,29.6,29.91,West,270,2.7,-999.0,35,-99.99,,,0.00,Acu-Link.com,2013-05-14 22:36:00,
2013-05-14 18:53:00,56.3,32.9,29.92,West,270,3.7,-999.0,41,-99.99,,,0.00,Acu-Link.com,2013-05-14 22:53:00,
2013-05-14 19:10:00,55.2,33.7,29.91,SW,225,2.2,-999.0,44,-99.99,,,0.00,Acu-Link.com,2013-05-14 23:10:00,
2013-05-14 20:50:00,52.9,36.2,29.93,WSW,247,2.7,-999.0,53,-99.99,,,0.00,Acu-Link.com,2013-05-15 00:50:00,
2013-05-14 21:14:00,52.2,37.0,29.94,West,270,3.7,-999.0,56,-99.99,,,0.00,Acu-Link.com,2013-05-15 01:14:00,
2013-05-14 21:33:00,51.6,37.3,29.95,West,270,2.7,-999.0,58,-99.99,,,0.00,Acu-Link.com,2013-05-15 01:33:00,
2013-05-14 21:48:00,50.7,38.6,29.96,WSW,247,0.0,-999.0,63,-99.99,,,0.00,Acu-Link.com,2013-05-15 01:48:00,
2013-05-14 22:03:00,50.5,39.2,29.96,WNW,292,2.2,-999.0,65,-99.99,,,0.00,Acu-Link.com,2013-05-15 02:03:00,
2013-05-14 22:21:00,49.8,38.9,29.94,SSW,202,0.0,-999.0,66,-99.99,,,0.00,Acu-Link.com,2013-05-15 02:21:00,
2013-05-14 22:36:00,49.6,39.1,29.94,NE,45,0.0,-999.0,67,-99.99,,,0.00,Acu-Link.com,2013-05-15 02:36:00,
2013-05-14 22:51:00,49.3,39.2,29.93,NE,45,0.0,-999.0,68,-99.99,,,0.00,Acu-Link.com,2013-05-15 02:51:00,
2013-05-14 23:07:00,49.3,39.2,29.93,NE,45,0.0,-999.0,68,-99.99,,,0.00,Acu-Link.com,2013-05-15 03:07:00,
2013-05-14 23:22:00,49.1,39.7,29.93,ESE,112,0.0,-999.0,70,-99.99,,,0.00,Acu-Link.com,2013-05-15 03:22:00,